Regional Weather Roundup
Issued by NWS

Home | Current Version | Previous Version | Text Only | Print | Product List | Glossary Off
Versions: 1 2 3 4 5 6 7 8 9 10 11 12 13 14 15 16 17 18 19 20 21 22 23 24 25 26 27 28 29 30 31 32 33 34 35 36 37 38 39 40 41 42 43 44 45 46 47 48 49 50

607
ASUS44 KJAN 211610
RWRMS

MISSISSIPPI HOURLY WEATHER ROUNDUP
NATIONAL WEATHER SERVICE JACKSON MS
1100 AM CDT MON JUL 21 2014

NOTE: "FAIR: INDICATES FEW OR NO CLOUDS BELOW 12,000 FEET WITH NO
SIGNIFICANT WEATHER AND/OR OBSTRUCTIONS TO VISIBILITY.

MSZ001>002-007>008-010>013-018>021-025>028-034>036-211700-
NORTHWEST MISSISSIPPI

CITY           SKY/WX    TMP DP  RH WIND       PRES   REMARKS
CLARKSDALE     FAIR      81  72  74 CALM      30.11R
CLEVELAND      FAIR      82  71  69 E5        30.09R
GREENWOOD      MOSUNNY   83  68  60 NE8       30.09R
GREENVILLE     SUNNY     84  69  60 E5        30.08R
GRENADA        FAIR      82  68  61 E5        30.09F
OLIVE BRANCH   MOSUNNY   79  70  73 E6        30.12R
OXFORD         FAIR      81  66  61 N6        30.12F
TUNICA         SUNNY     81  70  69 NE5       30.11S
$$

MSZ003>006-009-014>017-022>024-029>033-037>039-211700-
NORTHEAST MISSISSIPPI

CITY           SKY/WX    TMP DP  RH WIND       PRES   REMARKS
BELMONT        FAIR      80  67  65 N6        30.09F
COLUMBUS AFB   MOSUNNY   82  69  64 N7        30.07F
CORINTH        FAIR      81  66  61 N7        30.10S
GOLDN TRIANGLE MOSUNNY   84  70  61 N6        30.07F
STARKVILLE     FAIR      81  66  61 NE5       30.07F
TUPELO         SUNNY     81  68  64 NE7       30.08F
$$

MSZ040-058-211700-
CENTRAL MISSISSIPPI

CITY           SKY/WX    TMP DP  RH WIND       PRES   REMARKS
JACKSON INTL   PTSUNNY   84  70  62 NE5       30.07S
JACKSON HAWKNS MOSUNNY   85  65  51 NW3       30.08S
MERIDIAN KEY   SUNNY     86  70  58 N5        30.06F HX  90
MERIDIAN NAS   MOSUNNY   85  69  58 CALM      30.07S
RAYMOND        FAIR      82  77  83 NW7       30.08S HX  91
VICKSBURG      MOSUNNY   84  71  65 VRB5      30.08S
$$

MSZ059>079-211700-
SOUTH MISSISSIPPI

CITY           SKY/WX    TMP DP  RH WIND       PRES   REMARKS
BROOKHAVEN     FAIR      82  70  65 NW8       30.10R
COLUMBIA       FAIR      84  72  65 NW7       30.06S
HATTIESBURG    PTSUNNY   86  71  60 N7        30.06S HX  91
MCCOMB         PTSUNNY   82  68  62 NW10      30.08R
NATCHEZ        PTSUNNY   81  70  69 CALM      30.09R
PINE BELT      MOSUNNY   84  68  58 NW7       30.08S
$$

MSZ080>082-211700-
COASTAL MISSISSIPPI

CITY           SKY/WX    TMP DP  RH WIND       PRES   REMARKS
BAY ST LOUIS   MOSUNNY  N/A N/A N/A N9        30.06R
BILOXI         MOSUNNY   87  72  59 VRB5      30.05R HX  94
PASCAGOULA     MOSUNNY   86  73  65 VRB7      30.04S HX  93
GULFPORT       MOSUNNY   90  70  51 NW9       30.04R HX  95
$$



USA.gov is the U.S. government's official web portal to all federal, state and local government web resources and services.